Regional Weather Roundup
Issued by NWS Goodland, KS

Home | Current Version | Previous Version | Graphics & Text | Print | Product List | Glossary On
Versions: 1 2 3 4 5 6 7 8 9 10 11 12 13 14 15 16 17 18 19 20 21 22 23 24 25 26 27 28 29 30 31 32 33 34 35 36 37 38 39 40 41 42 43 44 45 46 47 48 49 50
000
ASUS43 KGLD 020608
RWRGLD

GOODLAND FORECAST AREA HOURLY WEATHER ROUNDUP
NATIONAL WEATHER SERVICE GOODLAND KS
1200 AM MDT TUE JUN 02 2015

...OFFICIAL OBSERVATIONS...

CITY           SKY/WX    TMP DP  RH WIND       PRES   REMARKS
GOODLAND KS    MOCLDY    67  63  87 S13       29.98F
HILL CITY KS   CLOUDY    65  61  87 SE7       30.01S
IMPERIAL NEB   TSTM      59  57  93 S7        30.05R
MCCOOK NEB     CLOUDY    66  56  70 N16G31    30.04R THUNDER
AKRON CO       CLOUDY    61  58  90 E9        29.98F
BURLINGTON CO  MOCLDY    67  55  65 S16       29.98F
LIMON CO       CLOUDY    61  49  64 SW10G21   30.04F
$$

...UNOFFICIAL OBSERVATIONS...

CITY           SKY/WX    TMP DP  RH WIND       PRES   REMARKS
COLBY KS       CLEAR     68  66  94 SE14      29.99F
GOVE KS          N/A     66  32  28 MISG        N/A
NORTON KS      CLEAR     63  55  77 SE7       30.00
SHARON SPRINGS   N/A     67  64  89 MISG        N/A
KIT CARSON CO    N/A     67  53  61 MISG        N/A
$$


USA.gov is the U.S. government's official web portal to all federal, state and local government web resources and services.